Change the Weather History Date:

Friday, October 7, 2011

  Actual Average Record
Temperature  
Mean Temperature 64 °F -  
Max Temperature 78 °F 74 °F 95 °F (1951)
Min Temperature 51 °F 51 °F 34 °F (1932)
Growing Degree Days 14 (Base 50)    
Moisture  
Dew Point 52 °F    
Average Humidity 70    
Maximum Humidity 94    
Minimum Humidity 39    
Precipitation  
Precipitation 0.00 in - - ()
Sea Level Pressure  
Sea Level Pressure 30.31 in    
Wind  
Wind Speed 3 mph (ENE)    
Max Wind Speed 10 mph    
Max Gust Speed -    
Visibility 10 miles    
Events      
Averages and records for this station are not official NWS values.
T = Trace of Precipitation, MM = Missing Value Source: NWS Daily Summary

Daily Weather History Graph

Daily Weather History Graph

Search for Another Location

Airport or City:

Trip Planner

Search our weather history database for the weather conditions in past years. The results will help you decide how hot, cold, wet, or windy it might be!

Date:

Astronomy

Oct. 07, 2011 Rise Set
Actual Time 6:43 AM CDT 6:20 PM CDT
Civil Twilight 6:18 AM CDT 6:45 PM CDT
Nautical Twilight 5:49 AM CDT 7:14 PM CDT
Astronomical Twilight 5:20 AM CDT 7:43 PM CDT
Moon 3:54 PM CDT (10/7) 2:41 AM CDT (10/7)
Length of Visible Light 12h 27m
Length of Day
11h 37m
Waxing Gibbous, 83% of the Moon is Illuminated
Oct 7
Waxing Gibbous
Oct 11
Full
Oct 19
Last Quarter
Oct 26
New
Nov 2
First Quarter

Hourly Weather History & Observations

Time (CDT) Temp. Dew Point Humidity Pressure Visibility Wind Dir Wind Speed Gust Speed Precip Events Conditions
12:15 AM 55.4 °F 51.8 °F 88% 30.28 in 10.0 mi NNE 3.5 mph - N/A   Clear
12:35 AM 55.4 °F 51.8 °F 88% 30.28 in 10.0 mi Calm Calm - N/A   Clear
12:55 AM 55.4 °F 51.8 °F 88% 30.28 in 10.0 mi Calm Calm - N/A   Clear
1:15 AM 53.6 °F 51.8 °F 94% 30.28 in 10.0 mi Calm Calm - N/A   Clear
1:35 AM 53.6 °F 51.8 °F 94% 30.29 in 10.0 mi Calm Calm - N/A   Clear
1:55 AM 51.8 °F 48.2 °F 88% 30.29 in 10.0 mi Calm Calm - N/A   Clear
2:35 AM 51.8 °F 48.2 °F 88% 30.29 in 10.0 mi Calm Calm - N/A   Clear
2:55 AM 51.8 °F 48.2 °F 88% 30.29 in 10.0 mi Calm Calm - N/A   Clear
3:15 AM 51.8 °F 48.2 °F 88% 30.29 in 10.0 mi Calm Calm - N/A   Clear
3:35 AM 51.8 °F 48.2 °F 88% 30.29 in 10.0 mi Calm Calm - N/A   Clear
3:55 AM 51.8 °F 48.2 °F 88% 30.29 in 10.0 mi Calm Calm - N/A   Clear
4:15 AM 51.8 °F 48.2 °F 88% 30.30 in 10.0 mi Calm Calm - N/A   Clear
4:35 AM 51.8 °F 48.2 °F 88% 30.30 in 10.0 mi Calm Calm - N/A   Clear
4:55 AM 51.8 °F 48.2 °F 88% 30.30 in 10.0 mi Calm Calm - N/A   Clear
5:15 AM 51.8 °F 48.2 °F 88% 30.30 in 10.0 mi Calm Calm - N/A   Clear
5:35 AM 51.8 °F 48.2 °F 88% 30.31 in 10.0 mi Calm Calm - N/A   Clear
5:55 AM 51.8 °F 48.2 °F 88% 30.31 in 10.0 mi Calm Calm - N/A   Clear
6:15 AM 51.8 °F 48.2 °F 88% 30.31 in 10.0 mi NE 3.5 mph - N/A   Clear
6:35 AM 51.8 °F 48.2 °F 88% 30.32 in 10.0 mi NE 4.6 mph - N/A   Clear
6:55 AM 51.8 °F 48.2 °F 88% 30.32 in 10.0 mi Calm Calm - N/A   Clear
7:15 AM 51.8 °F 48.2 °F 88% 30.33 in 10.0 mi Calm Calm - N/A   Clear
7:35 AM 55.4 °F 51.8 °F 88% 30.34 in 10.0 mi NE 3.5 mph - N/A   Clear
7:55 AM 57.2 °F 53.6 °F 88% 30.35 in 10.0 mi ENE 5.8 mph - N/A   Clear
8:15 AM 60.8 °F 53.6 °F 77% 30.35 in 10.0 mi ENE 5.8 mph - N/A   Clear
8:35 AM 60.8 °F 53.6 °F 77% 30.36 in 10.0 mi ENE 8.1 mph - N/A   Clear
8:55 AM 62.6 °F 53.6 °F 72% 30.37 in 10.0 mi ENE 8.1 mph - N/A   Clear
9:15 AM 64.4 °F 53.6 °F 68% 30.37 in 10.0 mi NE 6.9 mph - N/A   Clear
9:35 AM 64.4 °F 53.6 °F 68% 30.38 in 10.0 mi NE 5.8 mph - N/A   Clear
9:55 AM 66.2 °F 53.6 °F 64% 30.38 in 10.0 mi ENE 6.9 mph - N/A   Clear
10:15 AM 68.0 °F 53.6 °F 60% 30.38 in 10.0 mi ENE 3.5 mph - N/A   Clear
10:35 AM 69.8 °F 53.6 °F 56% 30.38 in 10.0 mi ENE 5.8 mph - N/A   Clear
10:55 AM 69.8 °F 53.6 °F 56% 30.38 in 10.0 mi Calm Calm - N/A   Clear
11:15 AM 71.6 °F 53.6 °F 53% 30.37 in 10.0 mi NNE 5.8 mph - N/A   Clear
11:35 AM 71.6 °F 55.4 °F 57% 30.37 in 10.0 mi ENE 8.1 mph - N/A   Clear
11:55 AM 73.4 °F 55.4 °F 53% 30.36 in 10.0 mi Calm Calm - N/A   Clear
12:35 PM 75.2 °F 53.6 °F 47% 30.34 in 10.0 mi East 9.2 mph - N/A   Clear
12:55 PM 75.2 °F 53.6 °F 47% 30.33 in 10.0 mi East 10.4 mph - N/A   Clear
1:15 PM 77.0 °F 53.6 °F 44% 30.32 in 10.0 mi East 10.4 mph - N/A   Clear
1:35 PM 77.0 °F 55.4 °F 47% 30.31 in 10.0 mi NE 6.9 mph - N/A   Clear
1:55 PM 77.0 °F 53.6 °F 44% 30.30 in 10.0 mi ENE 10.4 mph - N/A   Clear
2:15 PM 77.0 °F 53.6 °F 44% 30.30 in 10.0 mi East 10.4 mph - N/A   Clear
2:35 PM 78.8 °F 53.6 °F 42% 30.29 in 10.0 mi ENE 10.4 mph - N/A   Clear
2:55 PM 77.0 °F 53.6 °F 44% 30.29 in 10.0 mi East 10.4 mph - N/A   Clear
3:15 PM 78.8 °F 53.6 °F 42% 30.28 in 10.0 mi East 9.2 mph - N/A   Clear
3:35 PM 78.8 °F 51.8 °F 39% 30.28 in 10.0 mi East 8.1 mph - N/A   Clear
4:15 PM 77.0 °F 51.8 °F 41% 30.27 in 10.0 mi East 9.2 mph - N/A   Clear
4:35 PM 77.0 °F 51.8 °F 41% 30.27 in 10.0 mi ENE 6.9 mph - N/A   Clear
4:55 PM 77.0 °F 51.8 °F 41% 30.27 in 10.0 mi East 8.1 mph - N/A   Clear
5:15 PM 75.2 °F 51.8 °F 44% 30.27 in 10.0 mi East 9.2 mph - N/A   Clear
5:35 PM 73.4 °F 51.8 °F 47% 30.27 in 10.0 mi ENE 9.2 mph - N/A   Clear
5:55 PM 71.6 °F 51.8 °F 50% 30.27 in 10.0 mi ENE 6.9 mph - N/A   Clear
6:15 PM 69.8 °F 51.8 °F 53% 30.27 in 10.0 mi ENE 5.8 mph - N/A   Clear
6:35 PM 66.2 °F 51.8 °F 60% 30.27 in 10.0 mi ENE 3.5 mph - N/A   Clear
6:55 PM 62.6 °F 51.8 °F 68% 30.28 in 10.0 mi Calm Calm - N/A   Clear
7:15 PM 62.6 °F 51.8 °F 68% 30.28 in 10.0 mi Calm Calm - N/A   Clear
7:35 PM 60.8 °F 53.6 °F 77% 30.29 in 10.0 mi Calm Calm - N/A   Clear
7:55 PM 57.2 °F 51.8 °F 82% 30.30 in 10.0 mi Calm Calm - N/A   Clear
8:15 PM 57.2 °F 51.8 °F 82% 30.30 in 10.0 mi Calm Calm - N/A   Clear
8:35 PM 57.2 °F 51.8 °F 82% 30.31 in 10.0 mi Calm Calm - N/A   Clear
8:55 PM 55.4 °F 51.8 °F 88% 30.31 in 10.0 mi Calm Calm - N/A   Clear
9:15 PM 55.4 °F 51.8 °F 88% 30.31 in 10.0 mi ENE 3.5 mph - N/A   Clear
9:35 PM 57.2 °F 51.8 °F 82% 30.32 in 10.0 mi ENE 4.6 mph - N/A   Clear
9:55 PM 55.4 °F 50.0 °F 82% 30.33 in 10.0 mi ENE 5.8 mph - N/A   Clear
10:15 PM 55.4 °F 50.0 °F 82% 30.33 in 10.0 mi NE 5.8 mph - N/A   Clear
10:35 PM 55.4 °F 50.0 °F 82% 30.33 in 10.0 mi NE 4.6 mph - N/A   Clear
10:55 PM 55.4 °F 48.2 °F 77% 30.33 in 10.0 mi NE 5.8 mph - N/A   Clear
11:15 PM 53.6 °F 48.2 °F 82% 30.33 in 10.0 mi ENE 5.8 mph - N/A   Clear
11:35 PM 55.4 °F 48.2 °F 77% 30.33 in 10.0 mi East 4.6 mph - N/A   Clear
11:55 PM 55.4 °F 50.0 °F 82% 30.33 in 10.0 mi East 3.5 mph - N/A   Clear